QPF
0.03 0.06 0.10 0.13 0.08 0.08 0.01 0.00 0.00 0.00 0.00 0.00 0.00 0.00 0.00 0.00 0.00 0.00 0.00 0.00 0.00 0.00 0.00 0.00 0.00 0.00 0.04 0.05 0.03 0.01 0.03 0.02 0.01 0.00 0.00 0.00 0.00 0.00 0.01 0.02 0.00 0.00 0.00
0.00 0.05 0.10 0.09 0.04 0.01 0.00 0.00 0.00 0.00 0.00 0.00 0.00 0.00 0.00 0.00 0.00 0.00 0.00 0.00 0.00 0.00 0.00 0.00 0.00 0.00 0.00 0.01 0.05 0.01 0.03 0.04 0.05 0.06 0.00 0.00 0.03 0.13 0.02 0.01 0.00 0.00 0.00
0.00 0.03 0.08 0.06 0.00 0.00 0.00 0.00 0.00 0.00 0.00 0.00 0.00 0.00 0.00 0.00 0.00 0.00 0.00 0.00 0.00 0.00 0.00 0.00 0.00 0.00 0.00 0.00 0.00 0.00 0.00 0.01 0.03 0.07 0.03 0.00 0.01 0.09 0.02 0.00 0.00 0.01 0.03
0.00 0.00 0.04 0.02 0.00 0.00 0.00 0.00 0.00 0.00 0.00 0.00 0.00 0.00 0.00 0.00 0.00 0.00 0.00 0.00 0.00 0.00 0.00 0.00 0.00 0.00 0.00 0.00 0.00 0.01 0.01 0.01 0.04 0.01 0.00 0.00 0.00 0.03 0.03 0.01 0.00 0.00 0.02
0.00 0.00 0.00 0.00 0.00 0.00 0.00 0.00 0.00 0.00 0.00 0.00 0.00 0.00 0.00 0.00 0.00 0.00 0.00 0.00 0.00 0.00 0.00 0.00 0.00 0.00 0.00 0.00 0.02 0.10 0.15 0.13 0.13 0.04 0.00 0.00 0.00 0.00 0.00 0.01 0.01 0.04 0.02
0.00 0.00 0.00 0.00 0.00 0.00 0.00 0.00 0.00 0.00 0.00 0.00 0.00 0.00 0.00 0.00 0.00 0.00 0.00 0.00 0.00 0.00 0.00 0.00 0.00 0.00 0.00 0.00 0.01 0.08 0.17 0.24 0.13 0.08 0.01 0.00 0.00 0.00 0.00 0.00 0.04 0.03 0.01
0.00 0.00 0.00 0.00 0.00 0.00 0.00 0.00 0.00 0.00 0.00 0.00 0.00 0.00 0.00 0.00 0.00 0.00 0.00 0.00 0.00 0.00 0.00 0.00 0.00 0.00 0.00 0.00 0.04 0.04 0.10 0.10 0.01 0.16 0.13 0.03 0.00 0.00 0.00 0.00 0.01 0.00 0.00
0.00 0.00 0.00 0.00 0.00 0.00 0.00 0.00 0.00 0.00 0.00 0.00 0.00 0.00 0.00 0.00 0.00 0.00 0.00 0.00 0.00 0.00 0.00 0.00 0.00 0.00 0.00 0.02 0.06 0.09 0.05 0.07 0.03 0.03 0.09 0.09 0.04 0.00 0.00 0.00 0.00 0.00 0.00
0.00 0.00 0.00 0.00 0.00 0.00 0.00 0.00 0.00 0.00 0.00 0.00 0.00 0.00 0.00 0.00 0.00 0.00 0.00 0.00 0.00 0.00 0.00 0.00 0.00 0.00 0.01 0.05 0.07 0.08 0.07 0.02 0.00 0.00 0.00 0.03 0.06 0.01 0.00 0.00 0.00 0.00 0.00
0.00 0.00 0.00 0.00 0.00 0.00 0.00 0.00 0.00 0.00 0.00 0.00 0.00 0.00 0.00 0.00 0.00 0.00 0.00 0.00 0.00 0.00 0.00 0.00 0.00 0.01 0.02 0.03 0.04 0.05 0.03 0.00 0.00 0.00 0.00 0.00 0.01 0.01 0.00 0.00 0.00 0.00 0.00
0.00 0.00 0.00 0.00 0.00 0.00 0.00 0.00 0.00 0.00 0.00 0.00 0.00 0.00 0.00 0.00 0.00 0.00 0.01 0.00 0.00 0.00 0.00 0.00 0.00 0.00 0.02 0.03 0.02 0.03 0.03 0.00 0.00 0.00 0.00 0.00 0.01 0.02 0.00 0.00 0.00 0.00 0.00
0.00 0.00 0.00 0.00 0.00 0.00 0.00 0.00 0.00 0.00 0.00 0.00 0.00 0.00 0.00 0.01 0.01 0.00 0.00 0.00 0.00 0.00 0.00 0.00 0.00 0.01 0.00 0.00 0.00 0.00 0.00 0.00 0.00 0.00 0.00 0.00 0.01 0.06 0.00 0.00 0.00 0.00 0.00
0.00 0.00 0.00 0.00 0.00 0.00 0.00 0.00 0.00 0.00 0.00 0.00 0.00 0.00 0.00 0.00 0.00 0.00 0.00 0.00 0.00 0.00 0.00 0.00 0.00 0.00 0.00 0.00 0.00 0.00 0.00 0.00 0.00 0.00 0.00 0.00 0.02 0.11 0.04 0.01 0.00 0.00 0.00
0.00 0.00 0.00 0.00 0.00 0.00 0.00 0.00 0.00 0.00 0.00 0.00 0.00 0.00 0.00 0.00 0.00 0.00 0.00 0.00 0.00 0.00 0.00 0.00 0.00 0.00 0.00 0.00 0.00 0.00 0.00 0.00 0.00 0.00 0.00 0.01 0.03 0.08 0.13 0.05 0.00 0.00 0.00
0.00 0.00 0.00 0.00 0.00 0.00 0.00 0.00 0.00 0.00 0.00 0.00 0.00 0.00 0.00 0.00 0.00 0.00 0.00 0.00 0.00 0.00 0.00 0.00 0.00 0.00 0.00 0.00 0.00 0.00 0.00 0.00 0.00 0.00 0.00 0.01 0.02 0.03 0.11 0.13 0.09 0.01 0.00
0.00 0.00 0.00 0.00 0.00 0.00 0.00 0.00 0.00 0.00 0.00 0.00 0.00 0.00 0.00 0.00 0.01 0.01 0.03 0.02 0.00 0.00 0.01 0.03 0.00 0.00 0.00 0.00 0.00 0.00 0.00 0.00 0.00 0.00 0.00 0.00 0.01 0.01 0.03 0.09 0.16 0.17 0.10
0.00 0.00 0.00 0.00 0.00 0.00 0.00 0.00 0.00 0.00 0.00 0.00 0.00 0.00 0.00 0.00 0.00 0.01 0.01 0.00 0.00 0.03 0.04 0.04 0.00 0.00 0.00 0.00 0.00 0.00 0.00 0.00 0.00 0.00 0.00 0.00 0.00 0.01 0.03 0.02 0.05 0.10 0.15
0.00 0.00 0.00 0.00 0.00 0.00 0.00 0.00 0.00 0.00 0.00 0.00 0.00 0.00 0.00 0.00 0.00 0.00 0.00 0.00 0.01 0.02 0.00 0.00 0.00 0.00 0.00 0.00 0.00 0.00 0.00 0.00 0.00 0.00 0.00 0.00 0.00 0.00 0.01 0.03 0.03 0.03 0.07
0.00 0.00 0.00 0.00 0.00 0.00 0.00 0.00 0.00 0.00 0.00 0.00 0.00 0.00 0.00 0.00 0.00 0.00 0.00 0.00 0.00 0.00 0.00 0.00 0.00 0.00 0.00 0.00 0.00 0.00 0.00 0.00 0.00 0.00 0.00 0.00 0.00 0.00 0.00 0.00 0.00 0.00 0.01
0.00 0.00 0.00 0.00 0.00 0.00 0.00 0.00 0.00 0.00 0.00 0.00 0.00 0.00 0.00 0.00 0.00 0.00 0.00 0.00 0.00 0.00 0.00 0.00 0.00 0.00 0.00 0.00 0.00 0.00 0.00 0.00 0.00 0.00 0.00 0.00 0.00 0.00 0.00 0.00 0.00 0.00 0.00
0.00 0.00 0.00 0.00 0.00 0.00 0.00 0.00 0.00 0.00 0.00 0.00 0.00 0.00 0.00 0.00 0.00 0.00 0.00 0.00 0.00 0.00 0.00 0.00 0.00 0.00 0.00 0.00 0.00 0.00 0.00 0.00 0.00 0.00 0.00 0.00 0.00 0.00 0.00 0.00 0.00 0.00 0.00
0.00 0.00 0.00 0.00 0.00 0.00 0.00 0.00 0.00 0.00 0.00 0.00 0.00 0.00 0.00 0.00 0.00 0.00 0.00 0.00 0.00 0.00 0.00 0.00 0.00 0.00 0.00 0.00 0.00 0.00 0.00 0.00 0.00 0.00 0.00 0.00 0.00 0.00 0.00 0.00 0.00 0.00 0.00
0.00 0.00 0.00 0.00 0.00 0.00 0.00 0.00 0.00 0.00 0.00 0.00 0.00 0.00 0.00 0.00 0.00 0.00 0.00 0.00 0.00 0.00 0.00 0.00 0.00 0.00 0.00 0.00 0.00 0.00 0.00 0.00 0.00 0.00 0.00 0.00 0.00 0.00 0.00 0.00 0.00 0.00 0.00
0.00 0.00 0.00 0.00 0.00 0.00 0.00 0.00 0.00 0.00 0.00 0.00 0.00 0.00 0.00 0.00 0.00 0.00 0.00 0.00 0.00 0.00 0.00 0.00 0.00 0.00 0.00 0.00 0.00 0.00 0.00 0.00 0.00 0.00 0.00 0.00 0.00 0.00 0.00 0.00 0.00 0.00 0.00
0.00 0.00 0.00 0.00 0.00 0.00 0.00 0.00 0.00 0.00 0.00 0.00 0.00 0.00 0.00 0.00 0.00 0.00 0.00 0.00 0.00 0.00 0.00 0.00 0.00 0.00 0.00 0.00 0.00 0.00 0.00 0.00 0.00 0.00 0.00 0.00 0.00 0.00 0.00 0.00 0.00 0.00 0.00
0.00 0.00 0.00 0.00 0.00 0.00 0.00 0.00 0.00 0.00 0.00 0.00 0.00 0.00 0.00 0.00 0.00 0.00 0.00 0.00 0.00 0.00 0.00 0.00 0.00 0.00 0.00 0.00 0.00 0.00 0.00 0.00 0.00 0.00 0.00 0.00 0.00 0.00 0.00 0.00 0.00 0.00 0.00
MSLP
1015.16 1014.93 1014.96 1015.05 1015.08 1015.18 1015.36 1015.58 1015.53 1015.54 1015.74 1015.92 1016.03 1016.33 1016.51 1016.71 1016.85 1017.00 1017.01 1017.03 1017.13 1017.21 1017.16 1017.15 1017.22 1017.27 1017.22 1017.14 1017.33 1017.44 1017.58 1017.61 1017.56 1017.60 1017.60 1017.73 1017.78 1017.82 1017.85 1017.81 1017.90 1017.97 1018.00
1015.01 1014.97 1015.16 1015.28 1015.29 1015.43 1015.67 1015.83 1015.87 1015.91 1016.14 1016.29 1016.49 1016.60 1016.82 1017.03 1017.05 1017.28 1017.22 1017.32 1017.43 1017.41 1017.31 1017.31 1017.38 1017.41 1017.42 1017.47 1017.49 1017.55 1017.65 1017.67 1017.66 1017.60 1017.66 1017.73 1017.91 1017.98 1018.03 1018.23 1018.32 1018.32 1018.32
1015.24 1015.21 1015.32 1015.39 1015.43 1015.67 1015.89 1016.10 1016.20 1016.26 1016.47 1016.70 1016.82 1016.89 1017.14 1017.18 1017.41 1017.48 1017.52 1017.52 1017.55 1017.52 1017.48 1017.45 1017.44 1017.55 1017.61 1017.53 1017.60 1017.73 1017.82 1017.85 1017.87 1018.01 1018.08 1018.06 1018.09 1017.93 1018.19 1018.41 1018.62 1018.65 1018.59
1015.15 1015.38 1015.40 1015.47 1015.65 1015.96 1016.16 1016.36 1016.58 1016.60 1016.76 1016.95 1017.12 1017.24 1017.30 1017.42 1017.57 1017.69 1017.81 1017.80 1017.76 1017.67 1017.62 1017.58 1017.63 1017.71 1017.66 1017.65 1017.82 1017.90 1017.90 1017.97 1018.07 1018.30 1018.43 1018.40 1018.32 1018.31 1018.38 1018.55 1018.77 1018.86 1018.97
1015.18 1015.38 1015.50 1015.61 1015.86 1016.16 1016.43 1016.70 1016.81 1016.93 1017.05 1017.28 1017.42 1017.36 1017.51 1017.74 1017.89 1017.99 1018.00 1017.90 1017.85 1017.81 1017.78 1017.75 1017.74 1017.73 1017.70 1017.78 1017.90 1017.92 1017.97 1017.92 1017.93 1018.21 1018.68 1018.74 1018.64 1018.56 1018.71 1018.79 1019.03 1019.23 1019.23
1015.25 1015.47 1015.60 1015.77 1015.98 1016.36 1016.68 1016.94 1017.03 1017.15 1017.32 1017.56 1017.47 1017.59 1017.82 1017.90 1017.98 1018.10 1018.04 1018.00 1018.06 1018.02 1017.94 1017.79 1017.75 1017.72 1017.80 1017.92 1017.89 1017.76 1017.70 1017.91 1018.37 1018.67 1019.18 1019.07 1018.82 1018.46 1018.78 1018.94 1019.03 1019.39 1019.56
1015.38 1015.58 1015.68 1015.86 1016.11 1016.49 1016.80 1017.10 1017.17 1017.31 1017.48 1017.58 1017.68 1017.85 1017.94 1017.93 1018.08 1018.08 1017.99 1018.06 1018.09 1018.06 1018.04 1018.01 1017.95 1017.89 1017.98 1018.10 1017.98 1017.83 1017.94 1018.40 1018.65 1018.57 1019.15 1019.27 1019.00 1018.62 1018.73 1018.97 1019.15 1019.30 1019.82
1015.32 1015.60 1015.75 1015.97 1016.28 1016.65 1016.91 1017.18 1017.26 1017.41 1017.62 1017.78 1017.79 1017.90 1017.92 1017.97 1018.01 1018.08 1018.13 1018.19 1018.21 1018.21 1018.24 1018.13 1018.04 1018.07 1018.23 1018.30 1018.28 1018.32 1018.32 1018.52 1018.73 1018.54 1018.76 1018.90 1018.99 1018.70 1018.80 1019.11 1019.28 1019.47 1019.77
1015.17 1015.59 1015.83 1016.08 1016.38 1016.73 1017.00 1017.22 1017.33 1017.51 1017.69 1017.76 1017.87 1017.90 1017.95 1018.03 1018.11 1018.15 1018.20 1018.21 1018.17 1018.19 1018.20 1018.08 1017.97 1018.09 1018.17 1018.09 1018.03 1017.98 1018.07 1018.25 1018.52 1018.61 1018.73 1018.49 1018.59 1018.74 1018.94 1019.25 1019.38 1019.61 1019.79
1015.34 1015.60 1015.97 1016.20 1016.43 1016.78 1017.06 1017.20 1017.36 1017.48 1017.65 1017.76 1017.84 1017.98 1018.12 1018.16 1018.12 1018.04 1018.11 1018.19 1018.17 1018.15 1018.07 1018.03 1017.79 1017.94 1018.00 1018.00 1017.97 1018.20 1018.12 1018.16 1018.36 1018.52 1018.69 1018.40 1018.44 1018.63 1018.99 1019.35 1019.53 1019.70 1019.86
1015.42 1015.73 1015.98 1016.21 1016.55 1016.86 1017.12 1017.22 1017.33 1017.35 1017.59 1017.67 1017.76 1017.90 1018.06 1018.23 1018.19 1018.10 1018.17 1018.25 1018.16 1018.09 1018.14 1018.12 1018.00 1017.82 1017.85 1017.75 1017.52 1017.88 1017.92 1018.34 1018.49 1018.65 1018.53 1018.38 1018.49 1018.80 1019.11 1019.26 1019.51 1019.81 1019.94
1015.37 1015.75 1015.90 1016.09 1016.52 1016.91 1016.98 1017.13 1017.28 1017.27 1017.56 1017.59 1017.75 1017.88 1018.10 1018.24 1018.22 1018.06 1018.12 1018.08 1018.10 1018.24 1018.20 1018.03 1017.93 1017.93 1017.78 1017.68 1017.60 1017.56 1017.93 1018.21 1018.34 1018.55 1018.69 1018.61 1018.60 1018.65 1019.00 1019.31 1019.60 1019.72 1019.94
1014.82 1015.31 1015.66 1015.93 1016.30 1016.68 1016.72 1017.02 1017.19 1017.20 1017.45 1017.49 1017.62 1017.60 1017.84 1018.13 1018.09 1018.12 1018.25 1018.31 1018.25 1018.28 1018.40 1018.08 1017.97 1017.99 1017.90 1017.72 1017.76 1017.75 1017.87 1018.18 1018.35 1018.48 1018.40 1018.50 1018.66 1018.79 1018.85 1019.17 1019.46 1019.67 1019.92
1014.50 1014.75 1015.20 1015.48 1015.90 1016.40 1016.53 1016.66 1016.84 1017.04 1017.17 1017.34 1017.36 1017.39 1017.96 1018.06 1018.13 1018.14 1018.25 1018.23 1018.44 1018.53 1018.45 1018.08 1018.16 1018.00 1018.00 1017.96 1017.56 1017.48 1018.06 1018.25 1018.43 1018.37 1018.37 1018.46 1018.59 1018.78 1018.93 1019.13 1019.33 1019.66 1019.85
1013.90 1014.30 1014.74 1015.22 1015.59 1015.89 1016.16 1016.36 1016.64 1016.86 1016.95 1016.85 1017.15 1017.34 1017.61 1017.79 1017.98 1018.07 1018.24 1018.12 1018.08 1018.31 1018.18 1018.41 1018.30 1018.07 1018.10 1017.98 1017.73 1017.67 1017.80 1017.90 1017.95 1018.19 1018.25 1018.28 1018.37 1018.60 1018.66 1019.02 1019.33 1019.61 1019.75
1013.27 1013.61 1014.17 1014.66 1014.93 1015.28 1015.82 1016.07 1016.22 1016.46 1016.55 1016.65 1016.66 1016.82 1017.14 1017.39 1017.84 1018.06 1018.11 1018.05 1018.18 1018.27 1018.23 1018.36 1018.17 1018.28 1017.86 1017.93 1017.86 1017.69 1017.67 1017.64 1017.85 1018.14 1018.16 1018.23 1018.14 1018.36 1018.61 1018.82 1019.08 1019.44 1019.59
1012.45 1012.88 1013.52 1014.04 1014.57 1015.02 1015.29 1015.55 1015.83 1015.79 1016.13 1016.22 1016.19 1016.32 1016.86 1017.23 1017.35 1017.51 1017.69 1017.98 1017.81 1017.95 1018.20 1018.13 1017.86 1017.98 1018.08 1017.89 1018.00 1017.82 1017.72 1017.65 1017.75 1017.86 1018.02 1018.22 1018.22 1018.31 1018.57 1018.79 1018.92 1019.11 1019.36
1012.06 1012.52 1013.09 1013.71 1014.28 1014.59 1014.82 1015.16 1015.46 1015.43 1015.79 1015.85 1015.83 1016.10 1016.50 1016.80 1016.90 1017.24 1017.35 1017.49 1017.42 1017.59 1017.65 1018.01 1018.07 1018.27 1018.37 1018.27 1018.34 1018.21 1018.03 1017.79 1017.51 1018.01 1017.98 1018.16 1018.34 1018.41 1018.53 1018.79 1018.93 1019.01 1019.19
1011.33 1012.07 1012.74 1013.32 1013.75 1014.02 1014.35 1014.60 1015.03 1015.14 1015.53 1015.57 1015.46 1015.75 1016.19 1016.50 1016.71 1017.02 1017.24 1017.27 1017.38 1017.67 1017.78 1018.10 1018.33 1018.40 1018.54 1018.51 1018.45 1018.30 1018.22 1018.07 1017.62 1017.65 1017.96 1017.92 1018.22 1018.44 1018.56 1018.67 1018.81 1018.96 1019.15
1010.67 1011.51 1012.21 1012.70 1013.12 1013.61 1014.06 1014.51 1014.76 1015.13 1015.22 1015.29 1015.37 1015.48 1015.83 1016.17 1016.47 1016.83 1016.90 1017.12 1017.45 1017.73 1017.93 1018.20 1018.46 1018.55 1018.60 1018.60 1018.53 1018.40 1018.45 1018.38 1018.00 1018.06 1018.29 1018.18 1018.19 1018.27 1018.53 1018.72 1018.80 1019.01 1019.04
1010.31 1011.08 1011.75 1012.32 1012.70 1013.29 1013.91 1014.52 1014.88 1015.06 1015.13 1015.32 1015.34 1015.45 1015.58 1015.92 1016.17 1016.48 1016.81 1017.02 1017.31 1017.74 1017.92 1018.16 1018.31 1018.54 1018.58 1018.53 1018.82 1018.76 1018.85 1018.64 1018.53 1018.61 1018.43 1018.51 1018.52 1018.56 1018.63 1018.85 1018.93 1019.03 1019.16
1009.55 1010.50 1011.19 1011.58 1012.11 1012.67 1013.25 1013.77 1014.16 1014.42 1014.63 1014.72 1014.95 1015.33 1015.43 1015.71 1015.86 1016.07 1016.59 1017.15 1017.20 1017.52 1017.89 1018.09 1018.34 1018.72 1018.75 1018.62 1019.08 1019.50 1019.52 1019.43 1019.21 1019.08 1018.99 1018.75 1018.89 1018.76 1018.85 1018.85 1018.92 1019.07 1019.23
1008.79 1009.61 1010.23 1010.68 1011.27 1012.03 1012.72 1013.46 1013.96 1014.28 1014.44 1014.77 1014.99 1015.26 1015.24 1015.21 1015.40 1015.78 1016.28 1016.61 1017.02 1017.30 1017.72 1017.96 1018.17 1018.45 1018.83 1018.84 1018.77 1019.10 1019.81 1019.73 1019.41 1019.17 1019.31 1019.01 1019.06 1019.03 1019.03 1019.11 1019.04 1019.15 1019.28
1007.51 1008.49 1009.36 1010.09 1010.66 1011.30 1012.03 1012.75 1013.28 1013.67 1014.19 1014.37 1014.50 1014.65 1014.85 1014.82 1015.17 1015.59 1016.03 1016.36 1016.69 1016.88 1017.37 1017.63 1017.97 1018.29 1018.64 1019.08 1019.01 1018.88 1018.96 1019.17 1019.81 1020.04 1019.59 1019.39 1019.20 1019.04 1019.21 1019.25 1019.23 1019.27 1019.40
1006.55 1007.53 1008.36 1009.26 1009.95 1010.45 1011.21 1011.76 1012.50 1013.10 1013.39 1013.62 1014.10 1014.42 1014.69 1014.79 1014.80 1015.24 1015.77 1016.05 1016.57 1016.72 1017.05 1017.40 1017.81 1018.13 1018.50 1019.01 1019.17 1019.19 1019.29 1019.32 1019.42 1019.88 1020.06 1019.75 1019.46 1019.23 1019.07 1019.01 1019.18 1019.22 1019.32
1005.52 1006.56 1007.50 1008.41 1009.23 1009.82 1010.47 1011.08 1011.60 1012.20 1012.79 1013.40 1013.78 1014.23 1014.47 1014.67 1014.83 1014.92 1015.35 1015.71 1016.00 1016.54 1016.83 1017.38 1017.75 1018.10 1018.27 1018.44 1018.69 1018.87 1019.03 1019.26 1019.42 1019.61 1020.00 1019.96 1019.75 1019.25 1019.00 1018.88 1018.92 1019.21 1019.12
Thickness
5763 5766 5767 5767 5766 5765 5764 5763 5763 5764 5764 5762 5761 5757 5756 5755 5754 5752 5753 5752 5751 5752 5752 5751 5749 5748 5749 5749 5747 5746 5743 5742 5742 5740 5739 5737 5736 5735 5736 5738 5740 5742 5744
5768 5769 5766 5766 5766 5765 5763 5762 5763 5763 5761 5760 5758 5757 5755 5753 5753 5751 5751 5750 5749 5749 5750 5750 5749 5749 5748 5748 5748 5746 5743 5744 5743 5743 5741 5739 5737 5736 5735 5735 5737 5739 5741
5768 5768 5768 5767 5766 5765 5764 5763 5763 5762 5760 5758 5757 5756 5753 5752 5751 5750 5750 5750 5749 5749 5748 5748 5749 5748 5747 5749 5747 5746 5743 5742 5742 5740 5739 5739 5739 5739 5737 5736 5735 5736 5738
5769 5768 5769 5768 5766 5765 5764 5763 5761 5760 5759 5757 5755 5754 5752 5752 5751 5749 5747 5748 5748 5748 5748 5748 5748 5746 5748 5748 5745 5744 5744 5743 5741 5737 5736 5736 5737 5739 5739 5738 5735 5735 5734
5771 5770 5769 5768 5766 5765 5763 5761 5761 5758 5757 5755 5753 5753 5751 5749 5748 5747 5747 5748 5748 5748 5748 5748 5748 5748 5748 5747 5745 5744 5744 5743 5744 5740 5735 5736 5736 5736 5736 5737 5735 5732 5733
5772 5771 5769 5768 5767 5764 5762 5760 5759 5757 5755 5753 5754 5752 5750 5750 5749 5748 5748 5748 5747 5746 5747 5749 5749 5749 5747 5746 5748 5748 5748 5744 5740 5739 5733 5735 5739 5741 5737 5736 5736 5733 5731
5773 5771 5770 5769 5767 5764 5761 5758 5758 5756 5754 5754 5753 5752 5751 5751 5750 5749 5750 5749 5748 5747 5747 5748 5748 5749 5747 5746 5748 5750 5749 5742 5738 5734 5732 5734 5739 5741 5739 5736 5735 5735 5729
5774 5771 5771 5769 5766 5763 5761 5759 5758 5756 5755 5754 5754 5753 5752 5753 5753 5751 5750 5749 5748 5748 5746 5746 5748 5748 5747 5745 5745 5746 5747 5743 5738 5737 5733 5737 5738 5742 5739 5734 5734 5733 5730
5775 5773 5772 5770 5766 5763 5761 5759 5758 5758 5757 5756 5755 5754 5754 5754 5752 5752 5751 5751 5752 5750 5749 5750 5750 5749 5749 5748 5748 5747 5747 5746 5742 5737 5734 5740 5741 5742 5740 5735 5734 5732 5731
5776 5774 5771 5770 5767 5764 5761 5761 5761 5760 5759 5758 5757 5756 5756 5755 5754 5754 5753 5754 5753 5753 5753 5752 5754 5753 5752 5751 5751 5746 5746 5745 5744 5743 5740 5743 5742 5742 5738 5736 5733 5732 5731
5776 5774 5772 5770 5768 5765 5763 5763 5763 5764 5762 5761 5760 5759 5758 5757 5757 5757 5757 5756 5755 5756 5755 5754 5754 5756 5756 5756 5757 5750 5750 5748 5746 5744 5744 5744 5743 5740 5737 5736 5734 5731 5730
5774 5774 5775 5773 5769 5766 5766 5766 5766 5767 5765 5765 5763 5763 5760 5759 5760 5761 5760 5759 5758 5757 5758 5758 5758 5757 5760 5762 5760 5756 5755 5752 5749 5746 5744 5743 5742 5741 5739 5735 5732 5731 5729
5780 5779 5778 5776 5772 5769 5770 5770 5770 5770 5769 5770 5767 5768 5766 5763 5764 5765 5763 5762 5761 5760 5761 5762 5762 5760 5759 5761 5762 5760 5756 5754 5751 5749 5747 5744 5741 5739 5738 5735 5733 5731 5728
5782 5784 5782 5779 5776 5772 5773 5774 5773 5773 5774 5773 5772 5772 5768 5768 5768 5768 5767 5766 5764 5762 5762 5763 5762 5762 5761 5760 5762 5763 5758 5754 5751 5749 5748 5745 5742 5738 5736 5735 5733 5730 5728
5787 5787 5785 5783 5781 5778 5777 5778 5776 5775 5776 5778 5776 5774 5773 5772 5772 5771 5770 5769 5768 5765 5764 5762 5761 5763 5762 5761 5760 5759 5759 5758 5756 5751 5749 5746 5744 5741 5739 5735 5733 5729 5728
5794 5792 5791 5790 5788 5785 5782 5782 5781 5779 5779 5781 5780 5779 5778 5778 5775 5772 5771 5772 5770 5767 5766 5763 5764 5763 5765 5762 5760 5760 5758 5759 5756 5752 5751 5749 5747 5744 5741 5737 5733 5730 5727
5801 5801 5798 5796 5792 5790 5788 5785 5785 5786 5783 5782 5784 5785 5782 5780 5779 5777 5775 5772 5773 5772 5768 5766 5767 5765 5763 5763 5761 5760 5760 5759 5757 5754 5752 5748 5747 5743 5741 5738 5736 5734 5730
5806 5804 5803 5801 5797 5795 5793 5790 5788 5789 5787 5787 5789 5787 5784 5782 5781 5779 5779 5778 5777 5774 5772 5767 5766 5760 5759 5758 5756 5757 5759 5759 5759 5753 5752 5749 5746 5744 5740 5737 5736 5734 5732
5813 5809 5806 5804 5801 5800 5799 5796 5793 5793 5792 5792 5793 5791 5786 5783 5782 5781 5780 5778 5776 5772 5768 5765 5761 5759 5756 5755 5754 5755 5756 5756 5758 5755 5753 5750 5747 5745 5741 5738 5736 5734 5732
5820 5816 5811 5808 5807 5805 5803 5799 5797 5794 5793 5795 5794 5793 5789 5787 5785 5783 5781 5778 5773 5770 5767 5763 5760 5758 5756 5754 5754 5754 5752 5753 5756 5754 5751 5750 5747 5746 5742 5739 5737 5734 5732
5822 5817 5812 5809 5810 5807 5802 5797 5794 5792 5794 5794 5794 5793 5792 5789 5788 5785 5780 5777 5772 5768 5766 5763 5759 5754 5753 5753 5747 5747 5746 5748 5749 5749 5749 5748 5745 5742 5741 5737 5736 5733 5731
5823 5818 5815 5815 5814 5811 5808 5805 5802 5800 5799 5799 5797 5794 5793 5791 5789 5786 5780 5775 5773 5769 5764 5761 5757 5751 5748 5749 5740 5734 5729 5735 5738 5742 5743 5744 5743 5742 5738 5736 5735 5732 5730
5829 5826 5824 5822 5819 5815 5812 5807 5803 5802 5802 5798 5797 5795 5795 5794 5791 5787 5781 5777 5773 5769 5764 5762 5758 5754 5746 5745 5744 5735 5721 5720 5731 5736 5735 5739 5738 5736 5736 5735 5732 5729 5727
5838 5836 5832 5827 5824 5821 5817 5810 5805 5802 5797 5799 5799 5800 5798 5796 5792 5787 5782 5777 5773 5772 5767 5764 5760 5753 5747 5737 5738 5738 5737 5732 5719 5718 5728 5731 5732 5734 5731 5730 5729 5726 5722
5844 5839 5837 5832 5828 5826 5821 5817 5811 5806 5807 5805 5802 5799 5797 5796 5793 5788 5782 5778 5775 5772 5770 5765 5757 5751 5744 5733 5729 5730 5730 5729 5727 5719 5714 5721 5727 5727 5727 5727 5724 5723 5722
5851 5844 5838 5832 5829 5828 5824 5820 5817 5812 5807 5803 5801 5797 5796 5794 5791 5788 5783 5780 5777 5773 5769 5761 5756 5750 5744 5737 5734 5732 5729 5725 5722 5718 5713 5713 5715 5723 5725 5723 5721 5718 5717